Preview of NWS' New Version of Forecast
This preview is not operational and should not be used for support decisions.

Regional Weather Roundup (RWR)

Issued by National Weather Service (NWS)

                            
000
ASUS43 KTOP 201659
RWRKS 

WEATHER ROUNDUP FOR KANSAS
NATIONAL WEATHER SERVICE GOODLAND KS
1200 PM CDT TUE AUG 20 2019

NOTE:  "FAIR" INDICATES FEW OR NO CLOUDS BELOW 12,000 FEET WITH NO
SIGNIFICANT WEATHER AND/OR OBSTRUCTIONS TO VISIBILITY.

KSZ001>006-013>018-027>032-041>047-201800-
NORTHWEST KANSAS
  
CITY           SKY/WX    TMP DP  RH WIND       PRES   REMARKS
GOODLAND       SUNNY     86  63  45 S7        30.03S                  
HAYS           SUNNY     91  69  48 SW13      30.03R HX  96           
HILL CITY      SUNNY     92  67  43 S9        29.97F HX  95           
RUSSELL        SUNNY     91  68  46 SW14      29.95F HX  95           
$$

KSZ061>065-074>080-084>089-201800-
SOUTHWEST KANSAS
  
CITY           SKY/WX    TMP DP  RH WIND       PRES   REMARKS
DODGE CITY     SUNNY     94  61  33 SW16G25   30.02S                  
GARDEN CITY    SUNNY     95  60  31 SW15      30.02S HX  95           
GREAT BEND     SUNNY     89  74  60 SW8       29.98S HAZE    HX  98   
LIBERAL        SUNNY     93  63  36 SW17G24   30.04F                  
$$

KSZ066>073-081>083-090>101-201800-
SOUTHEAST KANSAS
  
CITY           SKY/WX    TMP DP  RH WIND       PRES   REMARKS
CHANUTE        SUNNY     93  74  53 SW14      30.00F HX 103           
COFFEYVILLE    SUNNY     91  75  59 S9        30.00S HX 101           
HUTCHINSON     SUNNY     95  71  45 S14       29.97F HX 102           
MEDICINE LODGE   N/A     95  67  39 S14       29.97F HX  99           
NEWTON         SUNNY     90  74  59 SW15      29.99F HX  99           
PARSONS        SUNNY     92  77  61 SW10      30.01F HX 105           
WICHITA INTL   MOSUNNY   93  71  48 S13       29.98F HX 100           
WICHITA JABRA  SUNNY     91  72  53 S12       29.98F HX  98           
$$

KSZ007>012-019>026-033>040-048>060-102>105-201800-
NORTHEAST KANSAS
  
CITY           SKY/WX    TMP DP  RH WIND       PRES   REMARKS
CONCORDIA      SUNNY     88  74  63 SW10      29.94F HX  96           
EMPORIA        SUNNY     93  74  53 SW13      29.98F HX 103           
LAWRENCE       SUNNY     92  73  53 N5        29.98R HX 100           
MANHATTAN      SUNNY     91  75  59 SW10      29.92F HX 101           
OLATHE IND     SUNNY     88  74  63 S8        30.00R HX  96           
OLATHE EXE     SUNNY     86  74  67 S6        30.01R                  
SALINA         SUNNY     94  73  50 S12       29.94F HX 103           
TOPEKA BILLARD SUNNY     89  73  59 CALM      29.95R HX  97           
TOPEKA FORBES  SUNNY     90  74  59 SW8       29.95S HX  99           
$$